Time,TemperatureF,DewpointF,PressureIn,WindDirection,WindDirectionDegrees,WindSpeedMPH,WindSpeedGustMPH,Humidity,HourlyPrecipIn,Conditions,Clouds,dailyrainin,SoftwareType,DateUTC
2013-06-10 00:00:00,78.9,69.9,30.10,SSW,206,0.0,0.0,74,0.00,,---,0.00,VWS V14.01,2013-06-10 04:00:00,
2013-06-10 00:01:00,78.5,69.5,30.10,SSW,201,0.0,0.0,74,0.00,,---,0.00,VWS V14.01,2013-06-10 04:01:00,
2013-06-10 00:06:00,78.5,69.9,30.11,SSW,195,0.0,0.0,75,0.00,,---,0.00,VWS V14.01,2013-06-10 04:06:00,
2013-06-10 00:11:00,78.5,69.9,30.11,South,180,0.0,0.0,75,0.00,,---,0.00,VWS V14.01,2013-06-10 04:11:00,
2013-06-10 00:16:00,78.5,69.9,30.10,SSW,195,0.0,0.0,75,0.00,,---,0.00,VWS V14.01,2013-06-10 04:16:00,
2013-06-10 00:21:00,78.4,70.2,30.10,SSW,203,0.0,0.0,76,0.00,,---,0.00,VWS V14.01,2013-06-10 04:21:00,
2013-06-10 00:26:00,78.5,70.3,30.10,SSW,197,0.0,0.0,76,0.00,,---,0.00,VWS V14.01,2013-06-10 04:26:00,
2013-06-10 00:30:00,78.8,70.2,30.10,SSW,205,0.0,0.0,75,0.00,,---,0.00,VWS V14.01,2013-06-10 04:30:00,
2013-06-10 00:31:00,78.5,70.3,30.10,South,186,0.0,0.0,76,0.00,,---,0.00,VWS V14.01,2013-06-10 04:31:00,
2013-06-10 00:36:00,78.5,70.3,30.10,SSW,201,0.0,0.0,76,0.00,,---,0.00,VWS V14.01,2013-06-10 04:36:00,
2013-06-10 00:41:00,78.5,70.3,30.10,SSW,211,0.0,0.0,76,0.00,,---,0.00,VWS V14.01,2013-06-10 04:41:00,
2013-06-10 00:46:00,78.5,70.3,30.10,SSW,207,0.0,0.0,76,0.00,,---,0.00,VWS V14.01,2013-06-10 04:46:00,
2013-06-10 00:51:00,78.6,70.4,30.10,SSW,193,0.0,0.0,76,0.00,,---,0.00,VWS V14.01,2013-06-10 04:51:00,
2013-06-10 00:56:00,78.5,70.3,30.10,SSW,200,0.0,0.0,76,0.00,,---,0.00,VWS V14.01,2013-06-10 04:56:00,
2013-06-10 01:00:00,78.7,70.1,30.10,SSW,211,0.0,0.0,75,0.00,,---,0.00,VWS V14.01,2013-06-10 05:00:00,
2013-06-10 01:01:00,78.4,70.2,30.09,SSW,205,0.0,0.0,76,0.00,,---,0.00,VWS V14.01,2013-06-10 05:01:00,
2013-06-10 01:06:00,78.4,70.2,30.09,SSW,194,0.0,0.0,76,0.00,,---,0.00,VWS V14.01,2013-06-10 05:06:00,
2013-06-10 01:11:00,78.4,70.6,30.09,South,187,0.0,0.0,77,0.00,,---,0.00,VWS V14.01,2013-06-10 05:11:00,
2013-06-10 01:16:00,78.4,70.6,30.09,SSW,207,0.0,0.0,77,0.00,,---,0.00,VWS V14.01,2013-06-10 05:16:00,
2013-06-10 01:21:00,78.3,70.5,30.09,South,180,0.0,0.0,77,0.00,,---,0.00,VWS V14.01,2013-06-10 05:21:00,
2013-06-10 01:26:00,78.4,70.6,30.09,SSW,198,0.0,0.0,77,0.00,,---,0.00,VWS V14.01,2013-06-10 05:26:00,
2013-06-10 01:30:00,78.7,70.5,30.11,SSW,200,0.0,0.0,76,0.00,,---,0.00,VWS V14.01,2013-06-10 05:30:00,
2013-06-10 01:31:00,78.4,70.6,30.09,South,191,0.0,0.0,77,0.00,,---,0.00,VWS V14.01,2013-06-10 05:31:00,
2013-06-10 01:36:00,78.4,70.6,30.09,SSW,196,0.0,0.0,77,0.00,,---,0.00,VWS V14.01,2013-06-10 05:36:00,
2013-06-10 01:41:00,78.3,70.5,30.08,SSW,203,0.0,0.0,77,0.00,,---,0.00,VWS V14.01,2013-06-10 05:41:00,
2013-06-10 01:45:00,78.3,70.5,30.08,SSW,205,0.0,0.0,77,0.00,,---,0.00,VWS V14.01,2013-06-10 05:45:00,
2013-06-10 01:50:00,78.3,70.5,30.08,SSW,201,0.0,0.0,77,0.00,,---,0.00,VWS V14.01,2013-06-10 05:50:00,
2013-06-10 01:55:00,78.2,70.4,30.08,SSW,209,0.0,0.0,77,0.00,,---,0.00,VWS V14.01,2013-06-10 05:55:00,
2013-06-10 02:00:00,78.3,70.5,30.08,SSW,211,0.0,0.0,77,0.00,,---,0.00,VWS V14.01,2013-06-10 06:00:00,
2013-06-10 02:05:00,78.2,70.4,30.08,SSW,211,0.0,0.0,77,0.00,,---,0.00,VWS V14.01,2013-06-10 06:05:00,
2013-06-10 02:10:00,78.2,70.4,30.08,SW,217,0.0,0.0,77,0.00,,---,0.00,VWS V14.01,2013-06-10 06:10:00,
2013-06-10 02:15:00,78.1,70.3,30.08,SSW,213,0.0,0.0,77,0.00,,---,0.00,VWS V14.01,2013-06-10 06:15:00,
2013-06-10 02:20:00,78.0,70.2,30.07,SSW,199,0.0,0.0,77,0.00,,---,0.00,VWS V14.01,2013-06-10 06:20:00,
2013-06-10 02:25:00,78.0,70.2,30.08,SW,217,0.0,0.0,77,0.00,,---,0.00,VWS V14.01,2013-06-10 06:25:00,
2013-06-10 02:30:00,77.9,70.1,30.08,SSW,198,0.0,0.0,77,0.00,,---,0.00,VWS V14.01,2013-06-10 06:30:00,
2013-06-10 02:35:00,77.6,69.8,30.07,SSW,208,0.0,0.0,77,0.00,,---,0.00,VWS V14.01,2013-06-10 06:35:00,
2013-06-10 02:40:00,77.6,69.4,30.07,SSW,209,0.0,0.0,76,0.00,,---,0.00,VWS V14.01,2013-06-10 06:40:00,
2013-06-10 02:45:00,77.7,69.5,30.07,SSW,208,0.0,0.0,76,0.00,,---,0.00,VWS V14.01,2013-06-10 06:45:00,
2013-06-10 02:50:00,77.7,69.5,30.07,SSW,211,0.0,0.0,76,0.00,,---,0.00,VWS V14.01,2013-06-10 06:50:00,
2013-06-10 02:55:00,77.8,69.6,30.06,SSW,213,0.0,0.0,76,0.00,,---,0.00,VWS V14.01,2013-06-10 06:55:00,
2013-06-10 03:00:00,77.8,69.6,30.07,SSW,199,0.0,0.0,76,0.00,,---,0.00,VWS V14.01,2013-06-10 07:00:00,
2013-06-10 03:05:00,77.8,69.6,30.07,SW,229,0.0,0.0,76,0.00,,---,0.00,VWS V14.01,2013-06-10 07:05:00,
2013-06-10 03:10:00,77.7,69.5,30.07,SSW,213,0.0,0.0,76,0.00,,---,0.00,VWS V14.01,2013-06-10 07:10:00,
2013-06-10 03:15:00,77.7,69.5,30.07,SW,224,0.0,0.0,76,0.00,,---,0.00,VWS V14.01,2013-06-10 07:15:00,
2013-06-10 03:20:00,77.7,69.5,30.07,SW,215,0.0,0.0,76,0.00,,---,0.00,VWS V14.01,2013-06-10 07:20:00,
2013-06-10 03:25:00,77.7,69.5,30.07,SSW,205,0.0,0.0,76,0.00,,---,0.00,VWS V14.01,2013-06-10 07:25:00,
2013-06-10 03:30:00,77.7,69.5,30.07,SW,214,0.0,0.0,76,0.00,,---,0.00,VWS V14.01,2013-06-10 07:30:00,
2013-06-10 03:35:00,77.6,69.4,30.07,SW,215,0.0,0.0,76,0.00,,---,0.00,VWS V14.01,2013-06-10 07:35:00,
2013-06-10 03:40:00,77.5,69.3,30.07,SW,218,0.0,0.0,76,0.00,,---,0.00,VWS V14.01,2013-06-10 07:40:00,
2013-06-10 03:45:00,77.4,69.2,30.06,SW,215,0.0,0.0,76,0.00,,---,0.00,VWS V14.01,2013-06-10 07:45:00,
2013-06-10 03:50:00,77.4,69.2,30.06,SW,224,0.0,0.0,76,0.00,,---,0.00,VWS V14.01,2013-06-10 07:50:00,
2013-06-10 03:55:00,77.4,69.6,30.07,SSW,207,0.0,0.0,77,0.00,,---,0.00,VWS V14.01,2013-06-10 07:55:00,
2013-06-10 04:00:00,77.5,69.7,30.07,SSW,207,0.0,0.0,77,0.00,,---,0.00,VWS V14.01,2013-06-10 08:00:00,
2013-06-10 04:05:00,77.2,69.4,30.06,SSW,213,0.0,0.0,77,0.00,,---,0.00,VWS V14.01,2013-06-10 08:05:00,
2013-06-10 04:10:00,77.0,69.6,30.06,SW,226,0.0,0.0,78,0.00,,---,0.00,VWS V14.01,2013-06-10 08:10:00,
2013-06-10 04:15:00,76.9,69.5,30.07,SW,221,0.0,0.0,78,0.00,,---,0.00,VWS V14.01,2013-06-10 08:15:00,
2013-06-10 04:20:00,76.7,69.3,30.06,SW,219,0.0,0.0,78,0.00,,---,0.00,VWS V14.01,2013-06-10 08:20:00,
2013-06-10 04:25:00,76.6,69.2,30.06,WSW,241,0.0,0.0,78,0.00,,---,0.00,VWS V14.01,2013-06-10 08:25:00,
2013-06-10 04:30:00,76.7,69.7,30.06,SW,222,0.0,0.0,79,0.00,,---,0.00,VWS V14.01,2013-06-10 08:30:00,
2013-06-10 04:35:00,77.0,70.0,30.06,SSW,211,0.0,0.0,79,0.00,,---,0.00,VWS V14.01,2013-06-10 08:35:00,
2013-06-10 04:40:00,77.2,70.2,30.06,SSW,210,0.0,0.0,79,0.00,,---,0.00,VWS V14.01,2013-06-10 08:40:00,
2013-06-10 04:45:00,77.3,69.9,30.06,SSW,211,0.0,0.0,78,0.00,,---,0.00,VWS V14.01,2013-06-10 08:45:00,
2013-06-10 04:50:00,77.5,70.1,30.06,SSW,205,0.0,0.0,78,0.00,,---,0.00,VWS V14.01,2013-06-10 08:50:00,
2013-06-10 04:55:00,77.4,70.0,30.06,SSW,213,0.0,0.0,78,0.00,,---,0.00,VWS V14.01,2013-06-10 08:55:00,
2013-06-10 05:00:00,77.2,69.4,30.06,SSW,210,0.0,0.0,77,0.00,,---,0.00,VWS V14.01,2013-06-10 09:00:00,
2013-06-10 05:05:00,77.2,69.4,30.06,SW,217,0.0,0.0,77,0.00,,---,0.00,VWS V14.01,2013-06-10 09:05:00,
2013-06-10 05:10:00,77.1,69.7,30.06,SW,214,0.0,0.0,78,0.00,,---,0.00,VWS V14.01,2013-06-10 09:10:00,
2013-06-10 05:15:00,77.2,69.8,30.06,SW,221,0.0,0.0,78,0.00,,---,0.00,VWS V14.01,2013-06-10 09:15:00,
2013-06-10 05:20:00,77.2,69.8,30.06,SW,222,0.0,0.0,78,0.00,,---,0.00,VWS V14.01,2013-06-10 09:20:00,
2013-06-10 05:25:00,77.3,69.9,30.06,SSW,205,0.0,0.0,78,0.00,,---,0.00,VWS V14.01,2013-06-10 09:25:00,
2013-06-10 05:30:00,76.9,69.2,30.06,SW,221,0.0,0.0,77,0.00,,---,0.00,VWS V14.01,2013-06-10 09:30:00,
2013-06-10 05:35:00,76.4,69.0,30.06,SW,234,0.0,0.0,78,0.00,,---,0.00,VWS V14.01,2013-06-10 09:35:00,
2013-06-10 05:40:00,76.2,68.8,30.06,SSW,209,0.0,0.0,78,0.00,,---,0.00,VWS V14.01,2013-06-10 09:40:00,
2013-06-10 05:45:00,76.3,69.3,30.06,SW,215,0.0,0.0,79,0.00,,---,0.00,VWS V14.01,2013-06-10 09:45:00,
2013-06-10 05:50:00,76.4,69.0,30.06,SSW,213,0.0,0.0,78,0.00,,---,0.00,VWS V14.01,2013-06-10 09:50:00,
2013-06-10 05:55:00,76.3,68.9,30.06,SW,216,0.0,0.0,78,0.00,,---,0.00,VWS V14.01,2013-06-10 09:55:00,
2013-06-10 06:00:00,76.3,69.3,30.06,SW,219,0.0,0.0,79,0.00,,---,0.00,VWS V14.01,2013-06-10 10:00:00,
2013-06-10 06:05:00,76.4,69.4,30.06,SW,223,0.0,0.0,79,0.00,,---,0.00,VWS V14.01,2013-06-10 10:05:00,
2013-06-10 06:10:00,76.3,69.3,30.07,WSW,239,0.0,0.0,79,0.00,,---,0.00,VWS V14.01,2013-06-10 10:10:00,
2013-06-10 06:15:00,76.3,69.3,30.06,SW,227,0.0,0.0,79,0.00,,---,0.00,VWS V14.01,2013-06-10 10:15:00,
2013-06-10 06:20:00,76.3,69.3,30.06,WSW,239,0.0,0.0,79,0.00,,---,0.00,VWS V14.01,2013-06-10 10:20:00,
2013-06-10 06:25:00,76.3,69.3,30.06,SW,231,0.0,0.0,79,0.00,,---,0.00,VWS V14.01,2013-06-10 10:25:00,
2013-06-10 06:30:00,76.2,69.2,30.06,SW,236,0.0,0.0,79,0.00,,---,0.00,VWS V14.01,2013-06-10 10:30:00,
2013-06-10 06:35:00,76.3,69.3,30.06,SSW,212,0.0,0.0,79,0.00,,---,0.00,VWS V14.01,2013-06-10 10:35:00,
2013-06-10 06:40:00,76.3,69.3,30.06,SW,223,0.0,0.0,79,0.00,,---,0.00,VWS V14.01,2013-06-10 10:40:00,
2013-06-10 06:45:00,76.4,69.4,30.07,WSW,240,0.0,0.0,79,0.00,,---,0.00,VWS V14.01,2013-06-10 10:45:00,
2013-06-10 06:50:00,76.5,69.5,30.06,SW,223,0.0,0.0,79,0.00,,---,0.00,VWS V14.01,2013-06-10 10:50:00,
2013-06-10 06:55:00,76.7,69.7,30.07,SW,221,0.0,0.0,79,0.00,,---,0.00,VWS V14.01,2013-06-10 10:55:00,
2013-06-10 07:00:00,76.8,69.8,30.06,SW,220,0.0,0.0,79,0.00,,---,0.00,VWS V14.01,2013-06-10 11:00:00,
2013-06-10 07:05:00,77.0,70.0,30.07,SW,219,0.0,0.0,79,0.00,,---,0.00,VWS V14.01,2013-06-10 11:05:00,
2013-06-10 07:10:00,77.3,70.3,30.07,SSW,211,0.0,0.0,79,0.00,,---,0.00,VWS V14.01,2013-06-10 11:10:00,
2013-06-10 07:15:00,77.6,70.6,30.07,SSW,202,0.0,0.0,79,0.00,,---,0.00,VWS V14.01,2013-06-10 11:15:00,
2013-06-10 07:20:00,77.8,70.8,30.07,SSW,213,0.0,0.0,79,0.00,,---,0.00,VWS V14.01,2013-06-10 11:20:00,
2013-06-10 07:25:00,78.0,70.6,30.07,SSW,205,0.0,0.0,78,0.00,,---,0.00,VWS V14.01,2013-06-10 11:25:00,
2013-06-10 07:30:00,78.1,70.7,30.07,SSW,208,0.0,0.0,78,0.00,,---,0.00,VWS V14.01,2013-06-10 11:30:00,
2013-06-10 07:35:00,78.2,70.8,30.07,SSW,207,0.0,0.0,78,0.00,,---,0.00,VWS V14.01,2013-06-10 11:35:00,
2013-06-10 07:40:00,78.1,70.3,30.07,SW,215,0.0,0.0,77,0.00,,---,0.00,VWS V14.01,2013-06-10 11:40:00,
2013-06-10 07:45:00,78.0,70.2,30.07,SSW,210,0.0,0.0,77,0.00,,---,0.00,VWS V14.01,2013-06-10 11:45:00,
2013-06-10 07:50:00,78.1,70.3,30.07,SW,225,0.0,0.0,77,0.00,,---,0.00,VWS V14.01,2013-06-10 11:50:00,
2013-06-10 07:55:00,78.3,70.5,30.08,SSW,209,0.0,0.0,77,0.00,,---,0.00,VWS V14.01,2013-06-10 11:55:00,
2013-06-10 08:00:00,78.4,70.6,30.07,SSW,207,0.0,0.0,77,0.00,,---,0.00,VWS V14.01,2013-06-10 12:00:00,
2013-06-10 08:05:00,78.5,70.7,30.08,SW,229,0.0,0.0,77,0.00,,---,0.00,VWS V14.01,2013-06-10 12:05:00,
2013-06-10 08:10:00,78.8,70.6,30.08,WSW,238,0.0,0.0,76,0.00,,---,0.00,VWS V14.01,2013-06-10 12:10:00,
2013-06-10 08:15:00,79.0,70.8,30.08,SSW,208,0.0,0.0,76,0.00,,---,0.00,VWS V14.01,2013-06-10 12:15:00,
2013-06-10 08:20:00,79.1,70.5,30.08,SW,222,0.0,0.0,75,0.00,,---,0.00,VWS V14.01,2013-06-10 12:20:00,
2013-06-10 08:24:00,79.2,70.2,30.08,West,260,0.0,0.0,74,0.00,,---,0.00,VWS V14.01,2013-06-10 12:24:00,
2013-06-10 08:29:00,79.5,70.9,30.07,SW,234,0.0,0.0,75,0.00,,---,0.00,VWS V14.01,2013-06-10 12:29:00,
2013-06-10 08:30:00,76.9,69.2,30.06,SSW,210,0.0,0.0,77,0.00,,---,0.00,VWS V14.01,2013-06-10 12:30:00,
2013-06-10 08:34:00,79.6,70.2,30.07,SW,219,0.0,0.0,73,0.00,,---,0.00,VWS V14.01,2013-06-10 12:34:00,
2013-06-10 08:39:00,80.0,70.6,30.07,SW,215,0.0,0.0,73,0.00,,---,0.00,VWS V14.01,2013-06-10 12:39:00,
2013-06-10 08:44:00,80.2,70.4,30.07,SSW,207,0.0,0.0,72,0.00,,---,0.00,VWS V14.01,2013-06-10 12:44:00,
2013-06-10 08:49:00,80.3,70.5,30.07,SW,230,0.0,0.0,72,0.00,,---,0.00,VWS V14.01,2013-06-10 12:49:00,
2013-06-10 08:54:00,80.5,70.2,30.07,SSW,212,0.0,0.0,71,0.00,,---,0.00,VWS V14.01,2013-06-10 12:54:00,
2013-06-10 08:59:00,80.4,70.1,30.07,SW,219,0.0,0.0,71,0.00,,---,0.00,VWS V14.01,2013-06-10 12:59:00,
2013-06-10 09:00:00,76.3,69.3,30.06,SW,227,0.0,0.0,79,0.00,,---,0.00,VWS V14.01,2013-06-10 13:00:00,
2013-06-10 09:04:00,80.3,70.1,30.07,SSW,209,0.0,0.0,71,0.00,,---,0.00,VWS V14.01,2013-06-10 13:04:00,
2013-06-10 09:09:00,80.7,70.4,30.07,SSW,204,0.0,0.0,71,0.00,,---,0.00,VWS V14.01,2013-06-10 13:09:00,
2013-06-10 09:14:00,81.1,70.8,30.07,SW,216,0.0,0.0,71,0.00,,---,0.00,VWS V14.01,2013-06-10 13:14:00,
2013-06-10 09:19:00,81.1,70.4,30.07,SSW,212,0.0,0.0,70,0.00,,---,0.00,VWS V14.01,2013-06-10 13:19:00,
2013-06-10 09:24:00,80.9,70.2,30.07,SW,221,0.0,0.0,70,0.00,,---,0.00,VWS V14.01,2013-06-10 13:24:00,
2013-06-10 09:29:00,80.8,70.1,30.07,SW,224,0.0,0.0,70,0.00,,---,0.00,VWS V14.01,2013-06-10 13:29:00,
2013-06-10 09:30:00,76.2,69.2,30.06,SW,222,0.0,0.0,79,0.00,,---,0.00,VWS V14.01,2013-06-10 13:30:00,
2013-06-10 09:34:00,81.1,70.4,30.07,SSW,205,0.0,0.0,70,0.00,,---,0.00,VWS V14.01,2013-06-10 13:34:00,
2013-06-10 09:39:00,80.9,70.6,30.07,WSW,244,0.0,0.0,71,0.00,,---,0.00,VWS V14.01,2013-06-10 13:39:00,
2013-06-10 09:44:00,80.8,70.5,30.07,SSW,212,0.0,0.0,71,0.00,,---,0.00,VWS V14.01,2013-06-10 13:44:00,
2013-06-10 09:49:00,80.6,69.9,30.07,SSW,205,0.0,0.0,70,0.00,,---,0.00,VWS V14.01,2013-06-10 13:49:00,
2013-06-10 09:54:00,80.7,70.0,30.07,WSW,253,0.0,0.0,70,0.00,,---,0.00,VWS V14.01,2013-06-10 13:54:00,
2013-06-10 09:59:00,81.2,70.1,30.06,SSW,197,0.0,0.0,69,0.00,,---,0.00,VWS V14.01,2013-06-10 13:59:00,
2013-06-10 10:00:00,76.8,69.8,30.06,WSW,244,0.0,0.0,79,0.00,,---,0.00,VWS V14.01,2013-06-10 14:00:00,
2013-06-10 10:04:00,81.6,70.4,30.07,SSW,193,0.0,0.0,69,0.00,,---,0.00,VWS V14.01,2013-06-10 14:04:00,
2013-06-10 10:09:00,82.1,70.9,30.06,SSW,209,0.0,0.0,69,0.00,,---,0.00,VWS V14.01,2013-06-10 14:09:00,
2013-06-10 10:14:00,82.5,70.9,30.06,WSW,238,0.0,0.0,68,0.00,,---,0.00,VWS V14.01,2013-06-10 14:14:00,
2013-06-10 10:19:00,82.6,70.5,30.06,SSW,212,0.0,0.0,67,0.00,,---,0.00,VWS V14.01,2013-06-10 14:19:00,
2013-06-10 10:24:00,82.8,71.2,30.06,SW,223,0.0,0.0,68,0.00,,---,0.00,VWS V14.01,2013-06-10 14:24:00,
2013-06-10 10:29:00,82.5,70.4,30.06,SW,225,0.0,0.0,67,0.00,,---,0.00,VWS V14.01,2013-06-10 14:29:00,
2013-06-10 10:30:00,78.1,70.7,30.07,SSW,211,0.0,0.0,78,0.00,,---,0.00,VWS V14.01,2013-06-10 14:30:00,
2013-06-10 10:34:00,82.3,70.3,30.05,WSW,249,0.0,0.0,67,0.00,,---,0.00,VWS V14.01,2013-06-10 14:34:00,
2013-06-10 10:39:00,82.1,70.1,30.06,SW,215,0.0,0.0,67,0.00,,---,0.00,VWS V14.01,2013-06-10 14:39:00,
2013-06-10 10:44:00,82.2,70.6,30.06,SW,216,0.0,0.0,68,0.00,,---,0.00,VWS V14.01,2013-06-10 14:44:00,
2013-06-10 10:49:00,82.2,70.6,30.06,SW,219,0.0,0.0,68,0.00,,---,0.00,VWS V14.01,2013-06-10 14:49:00,
2013-06-10 10:54:00,82.6,70.1,30.06,SW,215,0.0,0.0,66,0.00,,---,0.00,VWS V14.01,2013-06-10 14:54:00,
2013-06-10 10:59:00,82.9,70.4,30.07,SSW,205,0.0,0.0,66,0.00,,---,0.00,VWS V14.01,2013-06-10 14:59:00,
2013-06-10 11:00:00,78.4,70.6,30.07,SSW,212,0.0,0.0,77,0.00,,---,0.00,VWS V14.01,2013-06-10 15:00:00,
2013-06-10 11:04:00,82.9,69.9,30.06,SSW,208,0.0,0.0,65,0.00,,---,0.00,VWS V14.01,2013-06-10 15:04:00,
2013-06-10 11:09:00,82.9,69.5,30.06,SSW,201,0.0,0.0,64,0.00,,---,0.00,VWS V14.01,2013-06-10 15:09:00,
2013-06-10 11:14:00,83.0,70.0,30.07,SW,216,0.0,0.0,65,0.00,,---,0.00,VWS V14.01,2013-06-10 15:14:00,
2013-06-10 11:19:00,83.1,70.6,30.06,WSW,238,0.0,0.0,66,0.00,,---,0.00,VWS V14.01,2013-06-10 15:19:00,
2013-06-10 11:24:00,83.2,70.7,30.06,SW,236,0.0,0.0,66,0.00,,---,0.00,VWS V14.01,2013-06-10 15:24:00,
2013-06-10 11:29:00,83.4,70.4,30.06,SW,218,0.0,0.0,65,0.00,,---,0.00,VWS V14.01,2013-06-10 15:29:00,
2013-06-10 11:30:00,79.6,70.6,30.07,SW,229,0.0,0.0,74,0.00,,---,0.00,VWS V14.01,2013-06-10 15:30:00,
2013-06-10 11:34:00,83.5,70.5,30.06,SW,231,0.0,0.0,65,0.00,,---,0.00,VWS V14.01,2013-06-10 15:34:00,
2013-06-10 11:39:00,83.4,70.4,30.06,WSW,252,0.0,0.0,65,0.00,,---,0.00,VWS V14.01,2013-06-10 15:39:00,
2013-06-10 11:44:00,83.2,70.2,30.06,SW,232,0.0,0.0,65,0.00,,---,0.00,VWS V14.01,2013-06-10 15:44:00,
2013-06-10 11:49:00,83.1,70.6,30.05,WSW,248,0.0,0.0,66,0.00,,---,0.00,VWS V14.01,2013-06-10 15:49:00,
2013-06-10 11:54:00,83.4,70.9,30.05,SW,227,0.0,0.0,66,0.00,,---,0.00,VWS V14.01,2013-06-10 15:54:00,
2013-06-10 11:59:00,83.5,70.9,30.05,SSW,208,0.0,0.0,66,0.00,,---,0.00,VWS V14.01,2013-06-10 15:59:00,
2013-06-10 12:00:00,80.4,70.1,30.07,SW,227,0.0,0.0,71,0.00,,---,0.00,VWS V14.01,2013-06-10 16:00:00,
2013-06-10 12:04:00,83.7,70.2,30.05,SW,228,0.0,0.0,64,0.00,,---,0.00,VWS V14.01,2013-06-10 16:04:00,
2013-06-10 12:09:00,83.4,70.9,30.05,SSW,211,0.0,0.0,66,0.00,,---,0.00,VWS V14.01,2013-06-10 16:09:00,
2013-06-10 12:14:00,83.5,70.5,30.05,SSW,210,0.0,0.0,65,0.00,,---,0.00,VWS V14.01,2013-06-10 16:14:00,
2013-06-10 12:19:00,83.4,71.3,30.04,SSW,194,0.0,0.0,67,0.00,,---,0.00,VWS V14.01,2013-06-10 16:19:00,
2013-06-10 12:24:00,82.4,71.6,30.04,SSW,193,0.0,0.0,70,0.00,,---,0.00,VWS V14.01,2013-06-10 16:24:00,
2013-06-10 12:29:00,81.4,71.5,30.04,SSW,211,0.0,0.0,72,0.00,,---,0.00,VWS V14.01,2013-06-10 16:29:00,
2013-06-10 12:30:00,80.9,70.2,30.07,SSW,207,0.0,0.0,70,0.00,,---,0.00,VWS V14.01,2013-06-10 16:30:00,
2013-06-10 12:34:00,80.9,71.4,30.04,SSW,197,0.0,0.0,73,0.00,,---,0.00,VWS V14.01,2013-06-10 16:34:00,
2013-06-10 12:39:00,80.6,71.2,30.03,SW,214,0.0,0.0,73,0.00,,---,0.00,VWS V14.01,2013-06-10 16:39:00,
2013-06-10 12:44:00,80.5,71.5,30.04,SSW,197,0.0,0.0,74,0.00,,---,0.00,VWS V14.01,2013-06-10 16:44:00,
2013-06-10 12:49:00,80.3,71.3,30.03,SSW,205,0.0,0.0,74,0.00,,---,0.00,VWS V14.01,2013-06-10 16:49:00,
2013-06-10 12:54:00,80.5,71.5,30.03,SSW,204,0.0,0.0,74,0.00,,---,0.00,VWS V14.01,2013-06-10 16:54:00,
2013-06-10 12:59:00,80.7,71.7,30.02,SSW,206,0.0,0.0,74,0.00,,---,0.00,VWS V14.01,2013-06-10 16:59:00,
2013-06-10 13:00:00,81.2,70.1,30.06,SSW,212,0.0,0.0,69,0.00,,---,0.00,VWS V14.01,2013-06-10 17:00:00,
2013-06-10 13:04:00,81.0,71.5,30.03,SSW,195,0.0,0.0,73,0.00,,---,0.00,VWS V14.01,2013-06-10 17:04:00,
2013-06-10 13:09:00,80.9,71.8,30.03,South,191,0.0,0.0,74,0.00,,---,0.00,VWS V14.01,2013-06-10 17:09:00,
2013-06-10 13:14:00,81.0,71.9,30.02,SSW,197,0.0,0.0,74,0.00,,---,0.00,VWS V14.01,2013-06-10 17:14:00,
2013-06-10 13:19:00,80.9,71.8,30.02,SW,217,0.0,0.0,74,0.00,,---,0.00,VWS V14.01,2013-06-10 17:19:00,
2013-06-10 13:24:00,81.0,71.9,30.02,SSW,203,0.0,0.0,74,0.00,,---,0.00,VWS V14.01,2013-06-10 17:24:00,
2013-06-10 13:29:00,81.1,72.0,30.02,SSW,202,0.0,0.0,74,0.00,,---,0.00,VWS V14.01,2013-06-10 17:29:00,
2013-06-10 13:30:00,82.5,70.4,30.06,SSW,209,0.0,0.0,67,0.00,,---,0.00,VWS V14.01,2013-06-10 17:30:00,
2013-06-10 13:34:00,80.9,71.8,30.02,SSW,199,0.0,0.0,74,0.00,,---,0.00,VWS V14.01,2013-06-10 17:34:00,
2013-06-10 13:39:00,81.1,72.0,30.02,SSW,194,0.0,0.0,74,0.00,,---,0.00,VWS V14.01,2013-06-10 17:39:00,
2013-06-10 13:44:00,81.3,72.2,30.02,SSW,200,0.0,0.0,74,0.00,,---,0.00,VWS V14.01,2013-06-10 17:44:00,
2013-06-10 13:49:00,81.4,72.3,30.01,SSW,207,0.0,0.0,74,0.00,,---,0.00,VWS V14.01,2013-06-10 17:49:00,
2013-06-10 13:54:00,81.7,72.2,30.01,SSW,192,0.0,0.0,73,0.00,,---,0.00,VWS V14.01,2013-06-10 17:54:00,
2013-06-10 13:59:00,81.6,72.5,30.01,SW,218,0.0,0.0,74,0.00,,---,0.00,VWS V14.01,2013-06-10 17:59:00,
2013-06-10 14:00:00,82.9,70.4,30.07,SSW,207,0.0,0.0,66,0.00,,---,0.00,VWS V14.01,2013-06-10 18:00:00,
2013-06-10 14:04:00,81.4,71.9,30.01,SSW,202,0.0,0.0,73,0.00,,---,0.00,VWS V14.01,2013-06-10 18:04:00,
2013-06-10 14:09:00,81.4,72.3,30.01,SSW,204,0.0,0.0,74,0.00,,---,0.00,VWS V14.01,2013-06-10 18:09:00,
2013-06-10 14:14:00,81.4,71.9,30.01,SSW,209,0.0,0.0,73,0.00,,---,0.00,VWS V14.01,2013-06-10 18:14:00,
2013-06-10 14:19:00,81.4,72.3,30.01,South,173,0.0,0.0,74,0.00,,---,0.00,VWS V14.01,2013-06-10 18:19:00,
2013-06-10 14:24:00,81.4,71.9,30.01,SSW,211,0.0,0.0,73,0.00,,---,0.00,VWS V14.01,2013-06-10 18:24:00,
2013-06-10 14:29:00,81.3,71.8,30.00,SSW,205,0.0,0.0,73,0.00,,---,0.00,VWS V14.01,2013-06-10 18:29:00,
2013-06-10 14:30:00,83.5,70.5,30.06,SW,226,0.0,0.0,65,0.00,,---,0.00,VWS V14.01,2013-06-10 18:30:00,
2013-06-10 14:34:00,81.8,72.3,30.00,SW,217,0.0,0.0,73,0.00,,---,0.00,VWS V14.01,2013-06-10 18:34:00,
2013-06-10 14:39:00,81.8,71.9,30.01,SSW,203,0.0,0.0,72,0.00,,---,0.00,VWS V14.01,2013-06-10 18:39:00,
2013-06-10 14:44:00,81.6,71.7,30.00,SSW,202,0.0,0.0,72,0.00,,---,0.00,VWS V14.01,2013-06-10 18:44:00,
2013-06-10 14:49:00,81.5,71.6,30.00,SSW,201,0.0,0.0,72,0.00,,---,0.00,VWS V14.01,2013-06-10 18:49:00,
2013-06-10 14:54:00,81.6,72.1,30.00,SSW,213,0.0,0.0,73,0.00,,---,0.00,VWS V14.01,2013-06-10 18:54:00,
2013-06-10 14:59:00,82.0,72.5,30.00,SSW,213,0.0,0.0,73,0.00,,---,0.00,VWS V14.01,2013-06-10 18:59:00,
2013-06-10 15:00:00,83.5,70.5,30.05,SSW,211,0.0,0.0,65,0.00,,---,0.00,VWS V14.01,2013-06-10 19:00:00,
2013-06-10 15:04:00,81.6,71.7,30.00,SSW,196,0.0,0.0,72,0.00,,---,0.00,VWS V14.01,2013-06-10 19:04:00,
2013-06-10 15:09:00,81.5,71.6,30.00,SSW,209,0.0,0.0,72,0.00,,---,0.00,VWS V14.01,2013-06-10 19:09:00,
2013-06-10 15:14:00,81.6,72.1,30.00,SSW,195,0.0,0.0,73,0.00,,---,0.00,VWS V14.01,2013-06-10 19:14:00,
2013-06-10 15:19:00,82.0,72.1,29.99,SSW,211,0.0,0.0,72,0.00,,---,0.00,VWS V14.01,2013-06-10 19:19:00,
2013-06-10 15:24:00,82.5,72.2,29.99,SSW,196,0.0,0.0,71,0.00,,---,0.00,VWS V14.01,2013-06-10 19:24:00,
2013-06-10 15:29:00,82.6,72.2,29.99,SW,214,0.0,0.0,71,0.00,,---,0.00,VWS V14.01,2013-06-10 19:29:00,
2013-06-10 15:30:00,81.2,71.3,30.04,SW,228,0.0,0.0,72,0.00,,---,0.00,VWS V14.01,2013-06-10 19:30:00,
2013-06-10 15:34:00,82.9,72.5,29.99,SSW,205,0.0,0.0,71,0.00,,---,0.00,VWS V14.01,2013-06-10 19:34:00,
2013-06-10 15:39:00,83.0,72.6,29.99,SSW,211,0.0,0.0,71,0.00,,---,0.00,VWS V14.01,2013-06-10 19:39:00,
2013-06-10 15:44:00,82.8,72.0,29.98,SW,217,0.0,0.0,70,0.00,,---,0.00,VWS V14.01,2013-06-10 19:44:00,
2013-06-10 15:48:00,82.5,72.2,29.98,SSW,201,0.0,0.0,71,0.00,,---,0.00,VWS V14.01,2013-06-10 19:48:00,
2013-06-10 15:53:00,82.4,72.1,29.98,SSW,213,0.0,0.0,71,0.00,,---,0.00,VWS V14.01,2013-06-10 19:53:00,
2013-06-10 15:58:00,82.5,72.2,29.98,SSW,202,0.0,0.0,71,0.00,,---,0.00,VWS V14.01,2013-06-10 19:58:00,
2013-06-10 16:00:00,80.8,71.8,30.02,SSW,209,0.0,0.0,74,0.00,,---,0.00,VWS V14.01,2013-06-10 20:00:00,
2013-06-10 16:03:00,82.4,71.6,29.98,SSW,202,0.0,0.0,70,0.00,,---,0.00,VWS V14.01,2013-06-10 20:03:00,
2013-06-10 16:08:00,82.3,72.0,29.97,SSW,198,0.0,0.0,71,0.00,,---,0.00,VWS V14.01,2013-06-10 20:08:00,
2013-06-10 16:13:00,82.3,72.4,29.97,SW,219,0.0,0.0,72,0.00,,---,0.00,VWS V14.01,2013-06-10 20:13:00,
2013-06-10 16:18:00,82.2,71.4,29.97,SW,221,0.0,0.0,70,0.00,,---,0.00,VWS V14.01,2013-06-10 20:18:00,
2013-06-10 16:23:00,82.1,71.8,29.97,SSW,211,0.0,0.0,71,0.00,,---,0.00,VWS V14.01,2013-06-10 20:23:00,
2013-06-10 16:28:00,81.9,71.2,29.96,SSW,201,0.0,0.0,70,0.00,,---,0.00,VWS V14.01,2013-06-10 20:28:00,
2013-06-10 16:30:00,81.1,72.0,30.02,SSW,196,0.0,0.0,74,0.00,,---,0.00,VWS V14.01,2013-06-10 20:30:00,
2013-06-10 16:33:00,81.5,72.0,29.96,SSW,209,0.0,0.0,73,0.00,,---,0.00,VWS V14.01,2013-06-10 20:33:00,
2013-06-10 16:38:00,81.4,71.9,29.96,SW,217,0.0,0.0,73,0.00,,---,0.00,VWS V14.01,2013-06-10 20:38:00,
2013-06-10 16:43:00,81.1,71.6,29.96,SSW,202,0.0,0.0,73,0.00,,---,0.00,VWS V14.01,2013-06-10 20:43:00,
2013-06-10 16:48:00,81.3,71.8,29.97,SSW,205,0.0,0.0,73,0.00,,---,0.00,VWS V14.01,2013-06-10 20:48:00,
2013-06-10 16:53:00,81.2,71.7,29.97,SW,217,0.0,0.0,73,0.00,,---,0.00,VWS V14.01,2013-06-10 20:53:00,
2013-06-10 16:58:00,81.2,71.7,29.97,SSW,211,0.0,0.0,73,0.00,,---,0.00,VWS V14.01,2013-06-10 20:58:00,
2013-06-10 17:00:00,81.6,72.5,30.01,South,188,0.0,0.0,74,0.00,,---,0.00,VWS V14.01,2013-06-10 21:00:00,
2013-06-10 17:03:00,81.4,71.9,29.96,SW,218,0.0,0.0,73,0.00,,---,0.00,VWS V14.01,2013-06-10 21:03:00,
2013-06-10 17:08:00,81.5,71.6,29.96,SW,234,0.0,0.0,72,0.00,,---,0.00,VWS V14.01,2013-06-10 21:08:00,
2013-06-10 17:13:00,81.6,71.7,29.96,SW,219,0.0,0.0,72,0.00,,---,0.00,VWS V14.01,2013-06-10 21:13:00,
2013-06-10 17:18:00,82.2,70.6,29.96,SSW,212,0.0,0.0,68,0.00,,---,0.00,VWS V14.01,2013-06-10 21:18:00,
2013-06-10 17:23:00,81.8,70.6,29.96,SW,227,0.0,0.0,69,0.00,,---,0.00,VWS V14.01,2013-06-10 21:23:00,
2013-06-10 17:28:00,81.5,70.4,29.95,SSW,213,0.0,0.0,69,0.00,,---,0.00,VWS V14.01,2013-06-10 21:28:00,
2013-06-10 17:30:00,81.6,72.5,30.01,SSW,211,0.0,0.0,74,0.00,,---,0.00,VWS V14.01,2013-06-10 21:30:00,
2013-06-10 17:33:00,81.4,70.3,29.96,West,259,0.0,0.0,69,0.00,,---,0.00,VWS V14.01,2013-06-10 21:33:00,
2013-06-10 17:38:00,81.3,70.6,29.95,WSW,242,0.0,0.0,70,0.00,,---,0.00,VWS V14.01,2013-06-10 21:38:00,
2013-06-10 17:43:00,81.2,70.1,29.96,SSW,207,0.0,0.0,69,0.00,,---,0.00,VWS V14.01,2013-06-10 21:43:00,
2013-06-10 17:48:00,81.1,70.0,29.96,West,262,0.0,0.0,69,0.00,,---,0.00,VWS V14.01,2013-06-10 21:48:00,
2013-06-10 17:53:00,81.1,70.0,29.96,SW,225,0.0,0.0,69,0.00,,---,0.00,VWS V14.01,2013-06-10 21:53:00,
2013-06-10 17:58:00,81.1,70.4,29.97,WSW,239,0.0,0.0,70,0.00,,---,0.00,VWS V14.01,2013-06-10 21:58:00,
2013-06-10 18:00:00,81.9,72.0,30.00,South,188,0.0,0.0,72,0.00,,---,0.00,VWS V14.01,2013-06-10 22:00:00,
2013-06-10 18:03:00,81.1,70.0,29.98,WSW,239,0.0,0.0,69,0.00,,---,0.00,VWS V14.01,2013-06-10 22:03:00,
2013-06-10 18:08:00,81.1,70.0,29.98,SW,225,0.0,0.0,69,0.00,,---,0.00,VWS V14.01,2013-06-10 22:08:00,
2013-06-10 18:13:00,81.0,69.9,29.98,WSW,248,0.0,0.0,69,0.00,,---,0.00,VWS V14.01,2013-06-10 22:13:00,
2013-06-10 18:18:00,80.8,69.7,29.97,SW,224,0.0,0.0,69,0.00,,---,0.00,VWS V14.01,2013-06-10 22:18:00,
2013-06-10 18:23:00,80.7,69.6,29.97,SW,226,0.0,0.0,69,0.00,,---,0.00,VWS V14.01,2013-06-10 22:23:00,
2013-06-10 18:28:00,80.6,69.9,29.98,WSW,255,0.0,0.0,70,0.00,,---,0.00,VWS V14.01,2013-06-10 22:28:00,
2013-06-10 18:30:00,82.6,72.2,29.99,SSW,210,0.0,0.0,71,0.00,,---,0.00,VWS V14.01,2013-06-10 22:30:00,
2013-06-10 18:33:00,80.4,69.7,29.98,SW,221,0.0,0.0,70,0.00,,---,0.00,VWS V14.01,2013-06-10 22:33:00,
2013-06-10 18:38:00,80.4,69.7,29.98,WSW,244,0.0,0.0,70,0.00,,---,0.00,VWS V14.01,2013-06-10 22:38:00,
2013-06-10 18:43:00,80.3,69.6,29.98,SW,220,0.0,0.0,70,0.00,,---,0.00,VWS V14.01,2013-06-10 22:43:00,
2013-06-10 18:48:00,80.3,70.1,29.98,WSW,238,0.0,0.0,71,0.00,,---,0.00,VWS V14.01,2013-06-10 22:48:00,
2013-06-10 18:53:00,80.2,69.9,29.98,WSW,249,0.0,0.0,71,0.00,,---,0.00,VWS V14.01,2013-06-10 22:53:00,
2013-06-10 18:58:00,80.2,69.9,29.98,SW,223,0.0,0.0,71,0.00,,---,0.00,VWS V14.01,2013-06-10 22:58:00,
2013-06-10 19:00:00,82.4,71.6,29.98,SSW,212,0.0,0.0,70,0.00,,---,0.00,VWS V14.01,2013-06-10 23:00:00,
2013-06-10 19:03:00,80.2,69.9,29.98,WSW,242,0.0,0.0,71,0.00,,---,0.00,VWS V14.01,2013-06-10 23:03:00,
2013-06-10 19:08:00,80.2,69.9,29.98,SW,218,0.0,0.0,71,0.00,,---,0.00,VWS V14.01,2013-06-10 23:08:00,
2013-06-10 19:13:00,80.1,69.9,29.98,SW,224,0.0,0.0,71,0.00,,---,0.00,VWS V14.01,2013-06-10 23:13:00,
2013-06-10 19:18:00,80.1,70.3,29.98,SW,223,0.0,0.0,72,0.00,,---,0.00,VWS V14.01,2013-06-10 23:18:00,
2013-06-10 19:23:00,80.0,70.2,29.98,SW,215,0.0,0.0,72,0.00,,---,0.00,VWS V14.01,2013-06-10 23:23:00,
2013-06-10 19:28:00,80.0,70.2,29.98,WSW,237,0.0,0.0,72,0.00,,---,0.00,VWS V14.01,2013-06-10 23:28:00,
2013-06-10 19:30:00,81.8,71.5,29.96,SW,216,0.0,0.0,71,0.00,,---,0.00,VWS V14.01,2013-06-10 23:30:00,
2013-06-10 19:33:00,79.9,70.1,29.98,SW,218,0.0,0.0,72,0.00,,---,0.00,VWS V14.01,2013-06-10 23:33:00,
2013-06-10 19:38:00,79.9,70.1,29.98,WSW,256,0.0,0.0,72,0.00,,---,0.00,VWS V14.01,2013-06-10 23:38:00,
2013-06-10 19:43:00,79.8,70.0,29.98,SW,228,0.0,0.0,72,0.00,,---,0.00,VWS V14.01,2013-06-10 23:43:00,
2013-06-10 19:48:00,79.8,70.0,29.98,SW,232,0.0,0.0,72,0.00,,---,0.00,VWS V14.01,2013-06-10 23:48:00,
2013-06-10 19:53:00,79.8,70.0,29.97,SW,223,0.0,0.0,72,0.00,,---,0.00,VWS V14.01,2013-06-10 23:53:00,
2013-06-10 19:58:00,79.7,69.9,29.98,SW,233,0.0,0.0,72,0.00,,---,0.00,VWS V14.01,2013-06-10 23:58:00,
2013-06-10 20:00:00,81.2,71.7,29.97,SW,218,0.0,0.0,73,0.00,,---,0.00,VWS V14.01,2013-06-11 00:00:00,
2013-06-10 20:03:00,79.6,69.8,29.98,WSW,242,0.0,0.0,72,0.00,,---,0.00,VWS V14.01,2013-06-11 00:03:00,
2013-06-10 20:08:00,79.6,69.8,29.98,SW,231,0.0,0.0,72,0.00,,---,0.00,VWS V14.01,2013-06-11 00:08:00,
2013-06-10 20:13:00,79.6,69.8,29.99,SW,231,0.0,0.0,72,0.00,,---,0.00,VWS V14.01,2013-06-11 00:13:00,
2013-06-10 20:18:00,79.6,69.8,29.99,SW,231,0.0,0.0,72,0.00,,---,0.00,VWS V14.01,2013-06-11 00:18:00,
2013-06-10 20:23:00,79.6,69.8,29.99,SW,231,0.0,0.0,72,0.00,,---,0.00,VWS V14.01,2013-06-11 00:23:00,
2013-06-10 20:28:00,79.6,69.8,29.99,SW,231,0.0,0.0,72,0.00,,---,0.00,VWS V14.01,2013-06-11 00:28:00,
2013-06-10 20:30:00,81.5,70.4,29.96,SW,231,0.0,0.0,69,0.00,,---,0.00,VWS V14.01,2013-06-11 00:30:00,
2013-06-10 20:33:00,79.6,69.8,30.00,SW,231,0.0,0.0,72,0.00,,---,0.00,VWS V14.01,2013-06-11 00:33:00,
2013-06-10 20:38:00,79.6,69.8,30.00,SW,231,0.0,0.0,72,0.00,,---,0.00,VWS V14.01,2013-06-11 00:38:00,
2013-06-10 20:43:00,79.6,69.8,29.99,SW,231,0.0,0.0,72,0.00,,---,0.00,VWS V14.01,2013-06-11 00:43:00,
2013-06-10 20:48:00,79.6,69.8,29.99,SW,231,0.0,0.0,72,0.00,,---,0.00,VWS V14.01,2013-06-11 00:48:00,
2013-06-10 20:53:00,79.6,69.8,30.00,SW,231,0.0,0.0,72,0.00,,---,0.00,VWS V14.01,2013-06-11 00:53:00,
2013-06-10 20:58:00,79.6,69.8,29.99,SW,231,0.0,0.0,72,0.00,,---,0.00,VWS V14.01,2013-06-11 00:58:00,
2013-06-10 21:00:00,81.1,70.4,29.97,SW,220,0.0,0.0,70,0.00,,---,0.00,VWS V14.01,2013-06-11 01:00:00,
2013-06-10 21:03:00,79.6,69.8,30.00,SW,231,0.0,0.0,72,0.00,,---,0.00,VWS V14.01,2013-06-11 01:03:00,
2013-06-10 21:08:00,79.6,69.8,29.99,SW,231,0.0,0.0,72,0.00,,---,0.00,VWS V14.01,2013-06-11 01:08:00,
2013-06-10 21:13:00,79.6,69.8,29.99,SW,231,0.0,0.0,72,0.00,,---,0.00,VWS V14.01,2013-06-11 01:13:00,
2013-06-10 21:18:00,79.6,69.8,29.99,SW,231,0.0,0.0,72,0.00,,---,0.00,VWS V14.01,2013-06-11 01:18:00,
2013-06-10 21:23:00,79.6,69.8,30.00,SW,231,0.0,0.0,72,0.00,,---,0.00,VWS V14.01,2013-06-11 01:23:00,
2013-06-10 21:28:00,79.6,69.8,30.00,SW,231,0.0,0.0,72,0.00,,---,0.00,VWS V14.01,2013-06-11 01:28:00,
2013-06-10 21:30:00,80.6,69.9,29.98,WSW,256,0.0,0.0,70,0.00,,---,0.00,VWS V14.01,2013-06-11 01:30:00,
2013-06-10 21:33:00,79.6,69.8,30.00,SW,231,0.0,0.0,72,0.00,,---,0.00,VWS V14.01,2013-06-11 01:33:00,
2013-06-10 21:38:00,79.6,69.8,30.00,SW,231,0.0,0.0,72,0.00,,---,0.00,VWS V14.01,2013-06-11 01:38:00,
2013-06-10 21:43:00,79.6,69.8,30.01,SW,231,0.0,0.0,72,0.00,,---,0.00,VWS V14.01,2013-06-11 01:43:00,
2013-06-10 21:48:00,79.6,69.8,30.01,SW,231,0.0,0.0,72,0.00,,---,0.00,VWS V14.01,2013-06-11 01:48:00,
2013-06-10 21:53:00,79.6,69.8,30.01,SW,231,0.0,0.0,72,0.00,,---,0.00,VWS V14.01,2013-06-11 01:53:00,
2013-06-10 21:58:00,79.6,69.8,30.00,SW,231,0.0,0.0,72,0.00,,---,0.00,VWS V14.01,2013-06-11 01:58:00,
2013-06-10 22:00:00,80.2,69.9,29.98,WSW,238,0.0,0.0,71,0.00,,---,0.00,VWS V14.01,2013-06-11 02:00:00,
2013-06-10 22:03:00,79.6,69.8,30.00,SW,231,0.0,0.0,72,0.00,,---,0.00,VWS V14.01,2013-06-11 02:03:00,
2013-06-10 22:08:00,79.6,69.8,30.01,SW,231,0.0,0.0,72,0.00,,---,0.00,VWS V14.01,2013-06-11 02:08:00,
2013-06-10 22:12:00,79.6,69.8,30.00,SW,231,0.0,0.0,72,0.00,,---,0.00,VWS V14.01,2013-06-11 02:12:00,
2013-06-10 22:17:00,79.6,69.8,30.02,SW,231,0.0,0.0,72,0.00,,---,0.00,VWS V14.01,2013-06-11 02:17:00,
2013-06-10 22:22:00,79.6,69.8,30.03,SW,231,0.0,0.0,72,0.00,,---,0.00,VWS V14.01,2013-06-11 02:22:00,
2013-06-10 22:27:00,79.6,69.8,30.03,SW,231,0.0,0.0,72,0.00,,---,0.00,VWS V14.01,2013-06-11 02:27:00,
2013-06-10 22:30:00,80.0,70.2,29.97,WSW,248,0.0,0.0,72,0.00,,---,0.00,VWS V14.01,2013-06-11 02:30:00,
2013-06-10 22:32:00,79.6,69.8,30.03,SW,231,0.0,0.0,72,0.00,,---,0.00,VWS V14.01,2013-06-11 02:32:00,
2013-06-10 22:37:00,79.6,69.8,30.03,SW,231,0.0,0.0,72,0.00,,---,0.00,VWS V14.01,2013-06-11 02:37:00,
2013-06-10 22:42:00,79.6,69.8,30.03,SW,231,0.0,0.0,72,0.00,,---,0.00,VWS V14.01,2013-06-11 02:42:00,
2013-06-10 22:47:00,79.6,69.8,30.03,SW,231,0.0,0.0,72,0.00,,---,0.00,VWS V14.01,2013-06-11 02:47:00,
2013-06-10 22:52:00,79.6,69.8,30.03,SW,231,0.0,0.0,72,0.00,,---,0.00,VWS V14.01,2013-06-11 02:52:00,
2013-06-10 22:57:00,79.6,69.8,30.03,SW,231,0.0,0.0,72,0.00,,---,0.00,VWS V14.01,2013-06-11 02:57:00,
2013-06-10 23:00:00,79.7,69.9,29.98,WSW,241,0.0,0.0,72,0.00,,---,0.00,VWS V14.01,2013-06-11 03:00:00,
2013-06-10 23:03:00,79.6,69.8,30.03,SW,231,0.0,0.0,72,0.00,,---,0.00,VWS V14.01,2013-06-11 03:03:00,
2013-06-10 23:08:00,79.6,69.8,30.02,SW,231,0.0,0.0,72,0.00,,---,0.00,VWS V14.01,2013-06-11 03:08:00,
2013-06-10 23:13:00,79.6,69.8,30.01,SW,231,0.0,0.0,72,0.00,,---,0.00,VWS V14.01,2013-06-11 03:13:00,
2013-06-10 23:18:00,79.6,69.8,30.01,SW,231,0.0,0.0,72,0.00,,---,0.00,VWS V14.01,2013-06-11 03:18:00,
2013-06-10 23:23:00,79.6,69.8,30.00,SW,231,0.0,0.0,72,0.00,,---,0.00,VWS V14.01,2013-06-11 03:23:00,
2013-06-10 23:28:00,79.6,69.8,30.00,SW,231,0.0,0.0,72,0.00,,---,0.00,VWS V14.01,2013-06-11 03:28:00,
2013-06-10 23:30:00,79.6,69.8,30.00,SW,231,0.0,0.0,72,0.00,,---,0.00,VWS V14.01,2013-06-11 03:30:00,
2013-06-10 23:33:00,79.6,69.8,30.00,SW,231,0.0,0.0,72,0.00,,---,0.00,VWS V14.01,2013-06-11 03:33:00,
2013-06-10 23:38:00,79.6,69.8,30.00,SW,231,0.0,0.0,72,0.00,,---,0.00,VWS V14.01,2013-06-11 03:38:00,
2013-06-10 23:43:00,70.2,63.8,30.00,WSW,257,0.0,0.0,80,0.13,,---,0.13,VWS V14.01,2013-06-11 03:43:00,
2013-06-10 23:48:00,70.2,63.8,30.00,WSW,248,0.0,0.0,80,0.13,,---,0.13,VWS V14.01,2013-06-11 03:48:00,
2013-06-10 23:53:00,70.3,63.8,29.99,WSW,239,0.0,0.0,80,0.13,,---,0.13,VWS V14.01,2013-06-11 03:53:00,
2013-06-10 23:58:00,70.3,63.8,29.99,SW,233,0.0,0.0,80,0.13,,---,0.13,VWS V14.01,2013-06-11 03:58:00,